Voltar ao catálogo

COSMOS 252 DEB

AtivoLEO
NORAD 3814·DEBRIS·🇷🇺 Russia

Lançado Nov 1, 1968 de Baikonur Cosmodrome

Loading…

Próximas Passagens (próximas 24 horas)

TLE

AtualizadoSource: Space-Track

Época: Sep 14, 2026, 13:51 UTC

1 03814U 68097BC  26257.57769990  .00000468  00000-0  66991-3 0  9992
2 03814  62.2647 102.3163 0777066  47.4227 318.9712 12.79523312665890

Acompanhe COSMOS 252 DEB em tempo real com AllMySat

Download on the App Store